Dewpoint
-2 -3 -1 1 5 7 12 11 11 14 16 17 17 18 19 20 21 22 23 24 24 25 25 26 28 28 28 29 28 28 28 27 27 25 23 23 21 20 21 21 19 17 17 17 16 9 6 6 13 12 17 18 19 19 20 27 23 22 21 22 22 22 27
-3 -4 -6 -4 -1 2 5 9 8 11 13 14 15 16 17 18 18 19 20 21 21 22 23 24 24 25 25 27 28 28 28 28 28 27 26 25 24 22 23 22 19 17 16 16 18 17 18 14 13 11 15 17 17 18 19 20 22 23 22 22 22 22 22
-3 -3 -6 -6 -4 -3 0 4 4 6 9 11 12 13 14 16 16 17 18 18 19 20 21 21 22 22 23 24 25 27 28 28 28 28 27 27 26 25 24 24 22 19 15 14 16 19 19 18 15 12 12 12 15 17 18 18 19 21 22 23 22 22 23
-2 -3 -4 -6 -7 -6 -3 0 3 3 6 8 10 11 12 13 15 16 16 16 17 18 19 20 20 20 21 21 22 23 23 24 25 27 28 27 27 27 27 26 25 24 21 17 17 17 19 20 20 21 14 11 11 12 12 15 17 19 21 21 22 22 23
-2 -1 -3 -4 -6 -6 -5 -2 0 2 3 6 8 10 10 11 13 14 15 15 16 18 18 19 19 19 19 19 19 20 20 21 21 23 25 26 27 28 28 27 27 27 26 24 23 21 19 20 21 20 14 10 11 13 12 14 15 17 18 20 21 20 22
-5 -1 -1 -3 -5 -6 -5 -4 -2 -1 1 4 7 10 10 11 10 12 13 14 16 16 17 17 17 17 17 17 17 17 18 20 20 21 22 22 23 25 27 27 27 28 27 27 26 25 25 24 23 22 21 18 11 10 11 15 17 17 17 17 18 20 21
-4 -3 -0 -2 -4 -5 -4 -4 -3 -2 -0 3 7 10 11 10 8 10 12 12 12 13 13 15 17 17 17 17 16 16 17 17 18 20 20 21 22 22 23 24 26 27 26 26 26 26 26 26 26 25 25 23 15 14 13 13 17 19 20 20 19 19 20
-4 -5 -1 -3 -3 -4 -3 -3 -4 -4 -0 4 8 11 10 9 9 9 10 10 10 10 11 12 15 16 16 17 17 16 16 15 17 17 17 18 19 20 20 21 22 23 25 25 25 24 24 25 25 25 25 25 25 24 24 19 16 18 20 20 19 21 20
-3 -5 -3 -5 -5 -4 -4 -3 -3 -3 1 7 10 12 10 9 9 9 8 8 8 8 9 9 10 11 13 15 17 19 20 19 19 14 15 16 16 17 18 19 20 20 21 22 24 24 24 23 23 24 24 23 23 23 23 22 21 21 21 20 20 20 18
-4 -5 -4 -6 -5 -4 -4 -3 -4 -1 5 10 11 12 11 11 10 9 8 7 6 6 6 7 7 9 11 13 15 17 19 19 19 19 16 14 13 14 16 17 17 18 19 19 20 21 22 22 22 23 23 23 23 24 24 24 24 24 23 23 23 23 20
-4 -5 -5 -6 -6 -6 -5 -4 -4 1 10 13 13 11 10 10 9 9 7 5 4 4 4 5 6 6 8 9 11 14 17 15 15 17 19 18 17 17 12 12 14 15 17 17 18 19 20 20 21 22 23 23 24 24 24 24 25 24 24 24 23 22 20
-6 -7 -6 -6 -7 -7 -6 -6 -2 7 10 12 13 11 10 10 8 6 4 3 2 2 3 3 4 4 4 6 8 11 13 13 13 14 15 17 17 17 17 16 13 12 12 13 14 15 17 18 19 20 20 21 22 21 21 20 21 22 22 22 22 22 21
-7 -8 -7 -8 -8 -8 -7 -8 -3 6 10 11 12 13 10 8 4 3 2 1 1 1 1 1 1 1 2 3 7 9 9 10 11 12 13 14 15 15 15 15 15 16 12 10 11 11 12 13 15 16 18 20 21 21 19 19 20 20 20 20 20 21 20
-8 -8 -9 -9 -10 -9 -9 -9 -5 4 9 10 11 11 11 6 3 2 1 -2 -2 -2 -1 -1 -0 1 3 4 5 6 6 7 7 8 10 11 10 9 12 14 13 14 14 14 10 8 8 10 12 13 15 17 17 16 17 17 18 19 19 19 19 20 20
-10 -9 -9 -10 -10 -10 -10 -10 -4 6 8 9 10 10 9 3 1 0 -1 -4 -5 -4 -4 -2 2 4 4 4 3 4 6 7 7 6 6 7 7 8 9 10 10 8 6 8 7 7 7 8 10 11 11 12 15 16 16 15 16 17 17 18 19 19 20
-10 -10 -10 -10 -11 -11 -12 -10 -4 5 7 9 9 10 5 4 3 0 -2 -5 -7 -5 -3 -1 -1 0 0 0 0 2 3 5 7 8 6 4 5 5 6 8 9 12 13 13 15 14 13 13 13 18 16 16 16 17 18 18 18 17 16 16 15 15 16
-10 -9 -10 -11 -11 -12 -11 -10 -7 -0 5 7 9 7 3 2 -0 -1 -1 -6 -7 -6 -4 -5 -4 -3 -3 -3 -3 1 3 6 6 6 5 3 2 2 2 3 3 9 11 13 14 15 15 16 16 17 17 17 17 15 14 12 12 13 16 16 14 15 14
-10 -10 -11 -11 -12 -12 -11 -11 -9 -5 3 6 8 5 2 2 2 -3 -7 -6 -6 -5 -5 -5 -2 -1 -3 -4 -3 2 4 8 6 5 4 0 -1 -1 1 0 -1 -1 2 9 10 10 10 11 11 11 11 13 13 12 11 10 7 9 12 12 13 13 15
-11 -11 -11 -12 -13 -9 -11 -12 -10 -7 -2 5 6 3 0 -0 -2 -5 -7 -8 -7 -8 -9 -7 -4 -2 -1 -2 -1 1 7 7 5 4 4 4 5 5 5 5 6 2 -1 -2 -0 2 3 3 4 4 4 6 8 9 9 9 8 8 7 7 11 13 14
-13 -14 -13 -12 -13 -13 -13 -13 -13 -10 -3 3 4 5 -1 -2 -6 -8 -9 -11 -8 -8 -10 -9 -9 -3 -3 -3 -3 -2 5 6 7 3 3 3 2 2 2 5 4 4 3 2 1 0 -0 -0 0 1 1 1 2 5 7 8 8 7 8 6 6 7 10
-15 -16 -15 -14 -13 -13 -14 -14 -12 -10 -5 -1 1 3 -2 -7 -9 -9 -8 -8 -7 -7 -7 -8 -9 -11 -5 -3 -3 -3 -1 6 7 4 3 3 2 3 5 7 2 5 4 -3 -2 -3 -3 -2 -1 -0 1 2 4 7 8 8 8 7 7 9 10 10 10
-16 -18 -17 -16 -15 -16 -16 -14 -11 -12 -9 -9 -4 2 -4 -9 -10 -7 -6 -6 -9 -10 -10 -11 -13 -13 -6 -5 -5 -4 3 7 6 2 -0 -0 4 5 4 1 3 -0 -4 -7 -7 -7 -5 -4 -3 -2 -1 1 3 5 7 8 9 9 8 7 7 7 7
-18 -19 -19 -20 -19 -19 -19 -18 -18 -11 -11 -10 -10 -2 -6 -8 -9 -7 -5 -9 -13 -12 -13 -13 -13 -9 -7 -7 -6 -1 4 3 -2 -3 -4 -0 1 -1 -1 -1 -3 -3 -8 -8 -8 -7 -7 -5 -6 -4 -3 -2 -1 1 1 3 4 6 8 8 7 6 6
-21 -23 -23 -22 -20 -21 -20 -18 -20 -15 -12 -12 -12 -12 -0 -7 -10 -8 -9 -9 -14 -14 -16 -14 -12 -7 -7 -7 -6 -6 -6 -5 -5 -6 -6 -5 -5 -4 -4 -5 -6 -9 -10 -7 -8 -9 -8 -8 -7 -6 -5 -3 -2 -1 -1 -0 1 2 3 3 3 4 5
-22 -23 -22 -24 -22 -21 -20 -18 -19 -21 -15 -12 -12 -11 -11 -12 -11 -11 -10 -12 -14 -12 -13 -10 -9 -9 -8 -8 -7 -7 -7 -7 -8 -8 -8 -7 -6 -6 -7 -8 -12 -11 -12 -12 -11 -9 -9 -8 -6 -4 -3 -2 -3 -1 0 -1 0 2 4 3 2 1 3
-23 -22 -23 -23 -23 -23 -20 -21 -22 -19 -19 -14 -13 -12 -12 -11 -11 -11 -11 -11 -11 -10 -10 -10 -9 -9 -9 -10 -9 -9 -11 -10 -10 -9 -8 -8 -7 -8 -9 -11 -10 -12 -12 -12 -11 -10 -9 -7 -5 -5 -3 -3 -2 -2 -2 -2 -2 -2 -2 -2 -3 -0 0
-22 -23 -23 -23 -22 -22 -21 -21 -21 -20 -21 -19 -18 -18 -16 -15 -15 -12 -11 -12 -14 -12 -14 -13 -10 -10 -10 -11 -11 -11 -11 -10 -9 -9 -11 -10 -10 -9 -9 -9 -11 -11 -10 -9 -8 -8 -7 -4 -1 -0 -0 -2 -1 0 0 1 2 3 2 1 -1 -3 -3
-24 -24 -23 -24 -23 -22 -21 -20 -23 -22 -20 -19 -18 -17 -16 -16 -16 -18 -19 -16 -16 -16 -14 -13 -10 -13 -15 -16 -17 -16 -18 -18 -16 -13 -12 -13 -13 -12 -11 -9 -6 -4 -4 -5 -7 -8 -6 -6 -6 -8 -6 -4 -4 -3 -2 -1 -1 -0 -1 -4 -5 -5 -4
-22 -21 -25 -24 -23 -21 -22 -21 -20 -20 -13 -14 -14 -15 -16 -16 -17 -19 -19 -12 -12 -12 -13 -15 -18 -20 -19 -21 -18 -18 -18 -18 -17 -16 -15 -17 -16 -14 -12 -13 -15 -15 -14 -14 -8 -11 -10 -11 -13 -12 -10 -9 -9 -7 -6 -3 -3 -1 -2 -2 -4 -4 -2
-19 -18 -20 -21 -21 -23 -20 -20 -19 -16 -15 -15 -14 -14 -14 -14 -13 -13 -13 -13 -12 -12 -15 -19 -22 -23 -23 -21 -23 -20 -19 -18 -18 -17 -17 -16 -12 -12 -14 -13 -14 -13 -14 -10 -11 -12 -12 -14 -12 -14 -13 -12 -9 -7 -7 -3 -1 -4 -3 -3 -2 -2 -3
-17 -17 -18 -19 -21 -20 -18 -18 -18 -17 -16 -15 -15 -15 -14 -14 -14 -14 -14 -14 -15 -17 -20 -21 -23 -23 -24 -21 -22 -21 -20 -18 -18 -17 -18 -17 -16 -16 -15 -12 -15 -15 -12 -14 -13 -14 -13 -13 -14 -14 -13 -13 -10 -8 -8 -8 -8 -10 -9 -9 -5 -6 -5
-19 -19 -19 -19 -20 -21 -22 -19 -19 -18 -17 -16 -16 -16 -15 -15 -15 -15 -15 -16 -16 -19 -22 -25 -24 -24 -24 -24 -24 -21 -19 -19 -19 -18 -19 -19 -19 -17 -17 -18 -17 -14 -20 -19 -19 -18 -15 -16 -15 -15 -14 -14 -13 -10 -12 -12 -11 -11 -11 -11 -12 -12 -9
-21 -21 -21 -21 -21 -20 -20 -20 -19 -19 -18 -17 -17 -17 -17 -16 -15 -17 -18 -18 -20 -26 -24 -26 -26 -25 -25 -24 -23 -22 -22 -20 -20 -20 -20 -21 -20 -20 -18 -19 -18 -17 -21 -17 -18 -18 -20 -18 -17 -16 -15 -14 -14 -15 -15 -12 -13 -11 -14 -13 -11 -8 -9
-23 -22 -22 -22 -22 -22 -21 -21 -20 -19 -19 -19 -18 -18 -18 -18 -21 -21 -21 -21 -25 -26 -26 -24 -26 -24 -25 -24 -22 -20 -20 -21 -22 -22 -22 -21 -22 -22 -22 -20 -20 -21 -19 -20 -19 -21 -20 -18 -19 -17 -19 -19 -19 -18 -17 -15 -14 -14 -15 -14 -13 -12 -11
-28 -25 -24 -25 -24 -23 -22 -21 -21 -21 -21 -20 -20 -20 -19 -21 -27 -28 -27 -26 -29 -26 -27 -25 -24 -24 -22 -23 -24 -24 -23 -25 -26 -25 -24 -24 -24 -24 -23 -22 -20 -19 -20 -21 -21 -22 -22 -20 -18 -20 -19 -18 -18 -18 -18 -17 -16 -16 -14 -13 -11 -12 -13
-30 -31 -25 -25 -24 -23 -23 -23 -23 -23 -22 -21 -21 -21 -20 -29 -31 -33 -31 -29 -28 -30 -26 -26 -25 -25 -25 -26 -27 -26 -27 -28 -27 -27 -27 -26 -26 -24 -24 -25 -24 -21 -21 -21 -23 -22 -20 -18 -21 -20 -19 -20 -19 -17 -15 -16 -16 -16 -14 -13 -12 -10 -10